www.pogodaiklimat.ru

Погода и климат >> Архив погоды >> Норвегия >> Sklinna Fyr


ПОГОДА в Sklinna Fyr

  • Прогноз погоды в Sklinna Fyr
  • Монитор погоды в Sklinna Fyr
  • Климат города

АРХИВ ПОГОДЫ в Sklinna Fyr

Время (UTC), дата Ветер
(напр.,м/с)
 
Видим.   Явления Облачность Т
(С)
Тd
(С)
f
(%)
Тe
(С)
Тes
(С)
Комфортность P
(гПа)
Po
(гПа)
Тmin
(С)
Tmax
(С)
R
(мм)
R24
(мм)
S
(см)
01 14.10 Ю 11 н/о н/о +10.6 +9.4 92 +6 +6 999.5 997.6
06 14.10 ЮЗ 13
{22}
н/о н/о +11.6 +6.9 73 +7 +7 999.0 997.1 +8.5 +12.2
07 14.10 ЮЗ 13
{21}
н/о н/о +11.6 +6.9 73 +7 +7 999.1 997.2
08 14.10 ЮЗ 15
{19}
н/о н/о +11.8 +7.3 74 +7 +7 999.4 997.5
09 14.10 ЮЗ 14
{19}
н/о н/о +11.7 +7.2 74 +7 +7 999.7 997.8
10 14.10 ЮЗ 14
{21}
н/о н/о +12.0 +6.9 71 +8 +8 999.7 997.8
11 14.10 ЮЗ 16
{21}
н/о н/о +11.9 +8.0 77 +7 +7 999.4 997.5
12 14.10 ЮЗ 18
{26}
н/о н/о +10.8 +6.9 77 +5 +5 999.8 997.9
13 14.10 ЮЗ 15
{21}
н/о н/о +11.6 +7.3 75 +7 +7 999.9 998.0
14 14.10 ЮЗ 15
{20}
н/о н/о +11.5 +7.4 76 +7 +7 999.7 997.8
15 14.10 ЮЗ 15
{21}
н/о н/о +11.4 +7.3 76 +7 +7 999.6 997.7
16 14.10 ЮЗ 12
{20}
н/о н/о +11.2 +8.3 82 +7 +7 999.3 997.4
17 14.10 ЮЗ 14
{20}
н/о н/о +11.4 +7.7 78 +7 +7 999.7 997.8
18 14.10 ЮЗ 16
{21}
н/о н/о +11.3 +7.4 77 +6 +6 999.9 998.0 +12.1
19 14.10 ЮЗ 14
{20}
н/о н/о +11.2 +7.7 79 +7 +7 1000.2 998.3
20 14.10 ЮЗ 13
{20}
н/о н/о +11.0 +7.9 81 +6 +6 1000.3 998.4
21 14.10 ЮЗ 15
{20}
н/о н/о +11.1 +6.9 75 +6 +6 1000.7 998.8
22 14.10 ЮЗ 15
{23}
н/о н/о +10.4 +5.8 73 +5 +5 1001.0 999.1
23 14.10 ЮЗ 14
{19}
н/о н/о +11.0 +7.5 79 +6 +6 1001.5 999.6
00 15.10 ЮЗ 15
{23}
н/о н/о +10.7 +7.0 78 +6 +6 1002.0 1000.1
01 15.10 ЮЗ 14
{21}
н/о н/о +10.8 +7.3 79 +6 +6 1002.5 1000.6
02 15.10 ЮЗ 15
{20}
н/о н/о +9.5 +5.5 76 +4 +4 1003.3 1001.4
03 15.10 З 16
{20}
н/о н/о +10.1 +6.1 76 +5 +5 1003.7 1001.8
04 15.10 З 16
{20}
н/о н/о +10.3 +5.7 73 +5 +5 1004.3 1002.4
05 15.10 ЮЗ 14
{19}
н/о н/о +10.1 +6.5 78 +5 +5 1004.9 1003.0
06 15.10 З 15
{22}
н/о н/о +9.4 +6.1 80 +4 +4 1005.5 1003.6 +8.9
07 15.10 ЮЗ 14
{18}
н/о н/о +9.6 +7.0 84 +4 +4 1005.8 1003.9
08 15.10 З 12
{18}
н/о н/о +10.0 +5.4 73 +5 +5 1006.6 1004.7
09 15.10 ЮЗ 11
{16}
н/о н/о +10.4 +5.4 71 +6 +6 1006.9 1005.0
10 15.10 ЮЗ 12
{16}
н/о н/о +10.3 +5.7 73 +6 +6 1007.1 1005.2
11 15.10 ЮЗ 11
{15}
н/о н/о +10.4 +5.2 70 +6 +6 1007.0 1005.1
12 15.10 ЮЗ 8
{18}
н/о н/о +10.5 +5.9 73 +7 +7 1006.9 1005.0
13 15.10 ЮЗ 8
{12}
н/о н/о +10.2 +5.0 70 +6 +6 1006.4 1004.5
14 15.10 Ю 8
{11}
н/о н/о +10.5 +7.2 80 +7 +7 1005.4 1003.5
15 15.10 Ю 15
{17}
н/о н/о +9.5 +7.8 89 +4 +4 1004.7 1002.8
16 15.10 Ю 11
{16}
н/о н/о +8.7 +6.2 84 +3 +3 1003.5 1001.6
17 15.10 ЮВ 10
{13}
н/о н/о +9.0 +6.3 83 +4 +4 1001.8 999.9
18 15.10 ЮВ 10
{17}
н/о н/о +8.9 +6.2 83 +4 +4 1000.1 998.2 +10.6
19 15.10 ЮВ 12
{15}
н/о н/о +9.0 +5.9 81 +4 +4 997.8 995.9
20 15.10 ЮВ 14
{16}
н/о н/о +9.4 +7.0 85 +4 +4 995.7 993.8
21 15.10 Ю 17
{20}
н/о н/о +9.5 +8.0 90 +4 +4 993.8 991.9
22 15.10 Ю 19
{22}
н/о н/о +9.7 +8.5 92 +4 +4 992.0 990.1
23 15.10 Ю 18
{22}
н/о н/о +10.0 +9.1 94 +4 +4 990.6 988.7
00 16.10 Ю 17
{22}
н/о н/о +11.1 +9.9 92 +6 +6 989.4 987.6
01 16.10 Ю 18
{26}
н/о н/о +12.6 +11.0 90 +8 +8 988.6 986.8
02 16.10 ЮЗ 24
{31}
н/о н/о +12.2 +10.3 88 +7 +7 987.2 985.4
03 16.10 СЗ 25
{32}
н/о н/о +9.0 +5.6 79 +2 +2 992.0 990.1
04 16.10 СЗ 21
{28}
н/о н/о +8.6 +5.7 82 +2 +2 996.7 994.8
05 16.10 СЗ 19
{26}
н/о н/о +8.7 +4.5 75 +2 +2 999.7 997.8
06 16.10 З 20
{32}
н/о н/о +8.5 +4.3 75 +2 +2 1001.6 999.7 +8.1 +13.0
07 16.10 З 16
{23}
н/о н/о +9.3 +4.1 70 +4 +4 1002.6 1000.7
08 16.10 З 16
{23}
н/о н/о +9.5 +4.9 73 +4 +4 1003.5 1001.6
09 16.10 З 18
{22}
н/о н/о +9.5 +3.1 64 +4 +4 1004.5 1002.6
10 16.10 З 16
{21}
н/о н/о +9.6 +4.2 69 +4 +4 1005.3 1003.4
11 16.10 З 17
{24}
н/о н/о +9.6 +3.4 65 +4 +4 1005.7 1003.8
12 16.10 З 16
{24}
н/о н/о +9.1 +5.1 76 +3 +3 1006.3 1004.4
13 16.10 З 17
{24}
н/о н/о +9.3 +3.9 69 +4 +4 1006.9 1005.0
14 16.10 З 18
{25}
н/о н/о +9.4 +3.8 68 +4 +4 1007.2 1005.3
15 16.10 З 18
{22}
н/о н/о +9.4 +4.0 69 +4 +4 1007.3 1005.4
16 16.10 З 18
{26}
н/о н/о +9.1 +4.5 73 +3 +3 1007.4 1005.5
17 16.10 З 18
{25}
н/о н/о +9.2 +4.8 74 +3 +3 1007.4 1005.5
18 16.10 З 15
{26}
н/о н/о +9.6 +4.2 69 +4 +4 1007.7 1005.8 +8.2 +9.8
19 16.10 З 15
{19}
н/о н/о +9.7 +2.6 61 +5 +5 1008.0 1006.1
20 16.10 З 15
{18}
н/о н/о +9.3 +1.7 59 +4 +4 1008.7 1006.8
21 16.10 З 15
{19}
н/о н/о +9.4 +3.0 64 +4 +4 1008.9 1007.0
22 16.10 З 14
{19}
н/о н/о +9.1 +4.1 71 +4 +4 1008.9 1007.0
23 16.10 З 14
{19}
н/о н/о +8.9 +3.7 70 +3 +3 1009.1 1007.2
00 17.10 З 13
{19}
н/о н/о +8.9 +3.1 67 +4 +4 1009.1 1007.2
01 17.10 З 12
{16}
н/о н/о +8.3 +3.4 71 +3 +3 1008.6 1006.7
02 17.10 З 11
{15}
н/о н/о +8.5 +3.4 70 +3 +3 1007.8 1005.9
03 17.10 З 10
{15}
н/о н/о +8.4 +3.7 72 +3 +3 1007.3 1005.4
04 17.10 ЮЗ 6
{13}
н/о н/о +7.8 +4.6 80 +4 +4 1006.6 1004.7
05 17.10 З 8
{12}
н/о н/о +8.2 +3.9 74 +4 +4 1006.0 1004.1
06 17.10 ЮЗ 7
{16}
н/о н/о +7.6 +3.7 76 +3 +3 1005.8 1003.9 +7.4 +9.9
07 17.10 З 10
{12}
н/о н/о +7.6 +4.7 82 +2 +2 1005.5 1003.6
08 17.10 ЮЗ 8
{11}
н/о н/о +8.0 +3.1 71 +3 +3 1005.0 1003.1
09 17.10 ЮЗ 8
{12}
н/о н/о +7.9 +3.6 74 +3 +3 1004.5 1002.6
10 17.10 ЮЗ 5
{9}
н/о н/о +8.4 +3.7 72 +5 +5 1004.0 1002.1
11 17.10 З 8
{10}
н/о н/о +8.4 +4.6 77 +4 +4 1003.6 1001.7
12 17.10 З 6
{12}
н/о н/о +8.9 +4.9 76 +5 +5 1003.3 1001.4
13 17.10 З 6
{9}
н/о н/о +8.7 +4.3 74 +5 +5 1003.0 1001.1
14 17.10 З 5
{9}
н/о н/о +8.6 +4.2 74 +5 +5 1002.6 1000.7
15 17.10 З 7
{9}
н/о н/о +8.5 +4.0 73 +4 +4 1002.3 1000.4
16 17.10 З 7
{10}
н/о н/о +8.1 +4.9 80 +4 +4 1002.2 1000.3
17 17.10 З 9
{11}
н/о н/о +8.6 +4.6 76 +4 +4 1002.0 1000.1
18 17.10 З 9
{11}
н/о н/о +8.6 +5.0 78 +4 +4 1001.8 999.9 +7.5 +9.2
19 17.10 З 10
{13}
н/о н/о +8.9 +4.9 76 +4 +4 1001.8 999.9
20 17.10 З 10
{15}
н/о н/о +8.3 +4.7 78 +3 +3 1001.9 1000.0
21 17.10 З 11
{15}
н/о н/о +8.8 +5.4 79 +4 +4 1001.8 999.9
22 17.10 СЗ 11
{15}
н/о н/о +8.5 +4.5 76 +3 +3 1002.1 1000.2
23 17.10 СЗ 12
{16}
н/о н/о +8.9 +4.5 74 +4 +4 1002.4 1000.5
00 18.10 СЗ 13
{16}
н/о н/о +9.2 +5.4 77 +4 +4 1002.8 1000.9
01 18.10 СЗ 15
{21}
н/о н/о +8.9 +5.3 78 +3 +3 1002.9 1001.0
02 18.10 СЗ 12
{17}
н/о н/о +9.1 +5.7 79 +4 +4 1003.5 1001.6
03 18.10 СЗ 12
{16}
н/о н/о +9.4 +5.2 75 +4 +4 1004.0 1002.1
04 18.10 СЗ 14 н/о н/о +9.1 +4.9 75 +4 +4 1004.5 1002.6
05 18.10 СЗ 16
{21}
н/о н/о +9.3 +4.5 72 +4 +4 1005.2 1003.3
06 18.10 СЗ 14
{21}
н/о н/о +9.5 +5.3 75 +4 +4 1005.9 1004.0 +8.1 +9.6
07 18.10 СЗ 15
{20}
н/о н/о +9.5 +4.7 72 +4 +4 1006.7 1004.8
08 18.10 СЗ 14
{20}
н/о н/о +9.6 +5.2 74 +4 +4 1007.7 1005.8
09 18.10 СЗ 14
{20}
н/о н/о +9.6 +4.8 72 +4 +4 1008.8 1006.9
10 18.10 СЗ 12
{17}
н/о н/о +9.6 +5.0 73 +5 +5 1009.6 1007.7
11 18.10 СЗ 15
{20}
н/о н/о +8.2 +4.6 78 +2 +2 1010.8 1008.9
12 18.10 СЗ 14
{20}
н/о н/о +8.1 +3.2 71 +2 +2 1011.6 1009.7
13 18.10 СЗ 12
{18}
н/о н/о +9.6 +5.0 73 +5 +5 1012.2 1010.3
14 18.10 СЗ 12
{16}
н/о н/о +9.6 +5.2 74 +5 +5 1012.8 1010.9
15 18.10 СЗ 13
{17}
н/о н/о +9.2 +4.0 70 +4 +4 1013.3 1011.4
16 18.10 СЗ 11
{18}
н/о н/о +9.0 +4.8 75 +4 +4 1013.9 1012.0
17 18.10 С 10
{17}
н/о н/о +8.7 +5.1 78 +4 +4 1014.8 1012.9
18 18.10 СЗ 9
{18}
н/о н/о +8.8 +4.6 75 +4 +4 1015.3 1013.4 +8.1 +9.8
19 18.10 СЗ 8
{9}
н/о н/о +9.0 +3.8 70 +5 +5 1016.0 1014.1
20 18.10 СЗ 8
{10}
н/о н/о +9.3 +4.3 71 +5 +5 1016.5 1014.6
21 18.10 СЗ 7
{11}
н/о н/о +9.2 +3.8 69 +5 +5 1017.0 1015.1
22 18.10 СЗ 6
{9}
н/о н/о +9.1 +4.1 71 +6 +6 1017.3 1015.4
23 18.10 С 6
{8}
н/о н/о +8.9 +3.7 70 +5 +5 1017.6 1015.7
00 19.10 С 5
{11}
н/о н/о +8.9 +2.9 66 +6 +6 1017.9 1016.0
01 19.10 С 5
{7}
н/о н/о +8.8 +3.7 70 +6 +6 1018.1 1016.2
02 19.10 С 4
{6}
н/о н/о +8.8 +2.8 66 +6 +6 1018.3 1016.4
03 19.10 С 3
{5}
н/о н/о +8.6 +2.6 66 +6 +6 1018.5 1016.6
04 19.10 С 3
{5}
н/о н/о +8.7 +3.8 71 +6 +6 1018.5 1016.6
05 19.10
{5}
н/о н/о +8.4 +3.1 69 1018.7 1016.8
06 19.10 В 4
{7}
н/о н/о +7.9 +3.8 75 +5 +5 1019.0 1017.1 +7.9 +9.3
07 19.10 ЮВ 3
{6}
н/о н/о +7.7 +3.6 75 +5 +5 1019.3 1017.4
08 19.10 Ю 4
{6}
н/о н/о +8.1 +4.1 76 +5 +5 1019.6 1017.7
09 19.10 Ю 3
{5}
н/о н/о +8.5 +4.0 73 +6 +6 1020.0 1018.1
10 19.10 Ю 3
{4}
н/о н/о +8.9 +5.5 79 +6 +6 1020.2 1018.3
11 19.10 Ю 2
{4}
н/о н/о +9.1 +4.5 73 +8 +8 1020.3 1018.4
12 19.10 ЮВ 2
{6}
н/о н/о +9.3 +4.9 74 +8 +8 1020.2 1018.3
13 19.10 В 2
{3}
н/о н/о +9.3 +4.5 72 +8 +8 1020.2 1018.3
14 19.10 В 2
{4}
н/о н/о +9.0 +4.0 71 +7 +7 1020.2 1018.3
15 19.10 В 3
{4}
н/о н/о +8.3 +3.0 69 +6 +6 1020.4 1018.5
16 19.10 В 5
{6}
н/о н/о +7.9 +2.4 68 +4 +4 1020.4 1018.5
17 19.10 В 5
{7}
н/о н/о +7.9 +2.4 68 +4 +4 1020.3 1018.4
18 19.10 В 5
{7}
н/о н/о +7.7 +2.0 67 +4 +4 1020.5 1018.6 +7.6 +9.4
19 19.10 В 6
{8}
н/о н/о +7.7 +2.4 69 +4 +4 1020.5 1018.6
20 19.10 В 7
{8}
н/о н/о +7.8 +2.5 69 +4 +4 1020.6 1018.7
21 19.10 В 8
{9}
н/о н/о +7.5 +2.8 72 +3 +3 1020.5 1018.6
22 19.10 В 8
{10}
н/о н/о +7.5 +2.2 69 +3 +3 1020.4 1018.5
23 19.10 СВ 9
{10}
н/о н/о +7.7 +2.6 70 +3 +3 1020.0 1018.1
00 20.10 СВ 9
{12}
н/о н/о +7.8 +2.7 70 +3 +3 1019.9 1018.0
01 20.10 СВ 9
{11}
н/о н/о +7.6 +2.5 70 +3 +3 1020.1 1018.2
02 20.10 В 10
{11}
н/о н/о +7.7 +2.0 67 +3 +3 1019.9 1018.0
03 20.10 В 8
{11}
н/о н/о +7.6 +1.5 65 +3 +3 1019.8 1017.9
04 20.10 В 8
{10}
н/о н/о +7.4 +1.9 68 +3 +3 1019.6 1017.7
05 20.10 В 9
{10}
н/о н/о +7.5 +0.3 60 +3 +3 1019.4 1017.5
06 20.10 В 10 н/о н/о +7.4 -0.3 58 +2 +2 1019.2 1017.3
07 20.10 В 10
{12}
н/о н/о +7.5 +0.9 63 +2 +2 1019.4 1017.5
08 20.10 В 11
{13}
н/о н/о +7.6 +0.6 61 +2 +2 1019.7 1017.8
09 20.10 В 10
{13}
н/о н/о +7.8 -0.6 55 +3 +3 1019.7 1017.8
10 20.10 ЮВ 13
{15}
н/о н/о +7.8 +0.3 59 +2 +2 1019.6 1017.7
11 20.10 В 12
{14}
н/о н/о +8.0 +0.7 60 +3 +3 1019.4 1017.5
12 20.10 В 12
{15}
н/о н/о +8.2 +0.2 57 +3 +3 1019.3 1017.4
13 20.10 В 12
{15}
н/о н/о +8.4 +0.6 58 +3 +3 1019.1 1017.2
14 20.10 В 12
{15}
н/о н/о +8.0 +0.3 58 +3 +3 1018.9 1017.0
15 20.10 В 13
{15}
н/о н/о +7.9 +0.4 59 +2 +2 1018.7 1016.8
16 20.10 В 13
{15}
н/о н/о +7.6 +0.6 61 +2 +2 1018.5 1016.6
17 20.10 В 12
{16}
н/о н/о +7.4 +1.1 64 +2 +2 1018.8 1016.9
18 20.10 В 13
{16}
н/о н/о +7.3 +1.0 64 +1 +1 1018.8 1016.9 +7.2 +8.5
21 20.10 В 12
{16}
н/о н/о +7.1 +0.8 64 +1 +1 1018.6 1016.7
22 20.10 ЮВ 11
{16}
н/о н/о +7.4 +1.5 66 +2 +2 1018.4 1016.5
23 20.10 ЮВ 11
{14}
н/о н/о +7.4 +1.1 64 +2 +2 1018.1 1016.2
00 21.10 В 11
{17}
н/о н/о +7.4 +1.3 65 +2 +2 1018.0 1016.1

 

Местоположение метеостанции Sklinna Fyr (Норвегия): широта 65.20 долгота 11.00 высота над уровнем моря 23 м.

В архиве по умолчанию представлена погода в Sklinna Fyr за последнюю неделю. Архивные данные за месяц целиком и за предыдущие месяцы, начиная с января 2011 года, Вы можете получить, выбрав интересующий диапазон дат из раскрывающегося списка и нажав кнопку "Ввод!".

Внимание! Время в таблицах - всемирное. Для получения местного времени необходимо прибавить поправку, которая в Sklinna Fyr равна 1 ч.

Смотрите также архив погоды в соседних городах и на ближайших метеорологических станциях:

Погода в Rorvik Lufthavn (Норвегия) (42 км)
Погода в S?mna-Kval?yfjellet (Норвегия) (46 км)
Погода в Nordoyan Fyr (Норвегия) (49 км)
Погода в Bronnoysund Lufthavn (Норвегия) (64 км)
Погода в Vega-Vallsjo (Норвегия) (68 км)
Погода в Namsos Lufthavn (Норвегия) (86 км)
Погода в Buholmrasa Fyr (Норвегия) (93 км)
Погода в Tjotta (Норвегия) (96 км)
Погода в Gartland (Норвегия) (99 км)
Погода в Namsskogan (Норвегия) (101 км)

Пояснения к столбцам:

Ветер - указаны скорость ветра в м/с - средняя за 10 мин, порывы в срок и между сроками (в фигурных скобках) и направление, откуда дует ветер: С - северный, СВ - северо-восточный, В - восточный, ЮВ - юго-восточный, Ю - южный, ЮЗ - юго-западный, З - западный, СЗ - северо-западный.
Видимость - горизонтальная дальность видимости в метрах или километрах. При видимости от 1 до 10 км при отсутствии осадков обычно наблюдается дымка, при ухудшении видимости до 1 км и менее - туман. В сухую погоду видимость может ухудшаться дымом, пылью или мглою.
Явления - указаны атмосферные явления, наблюдавшиеся в срок или в последний час перед сроком; фигурными скобками обозначены явления, наблюдавшиеся между сроками (за 1-3 часа до срока); квадратными скобками обозначены град или гололедные отложения с указанием их диаметра в мм.
Облачность - указаны через наклонную черту общая и нижняя облачность в баллах и высота нижней границы облаков в метрах; квадратными скобками обозначены формы облаков: Ci - перистые, Cs - перисто-слоистые, Cc - перисто-кучевые, Ac - высококучевые, As - высокослоистые, Sc - слоисто-кучевые, Ns - слоисто-дождевые, Cu - кучевые, Cb - кучево-дождевые. Подробнее классификацию облаков см. в Атласе облаков (PDF).
T - Температура воздуха - температура, измеренная на высоте 2 м над землей.
Td - Температура точки росы - температура, при понижении до которой содержащийся в воздухе водяной пар достигнет насыщения.
f - Относительная влажность воздуха - влажноcть воздуха, измеренная на высоте 2 м над землей.
Te - Эффективная температура - температура, которую ощущает одетый по сезону человек в тени. Характеристика душности погоды. При расчете учитывается влияние влажности воздуха и скорости ветра на теплоощущения человека.
Tes - Эффективная температура на солнце - температура, которую ощущает человек, с поправкой на солнечный нагрев. Характеристика знойности погоды. Зависит от высоты солнца над горизонтом, облачности и скорости ветра. Ночью, в пасмурную погоду, а также при ветре 12 м/с и более поправка равна нулю.
P - Атмосферное давление - приведенное к уровню моря атмосферное давление.
Po - Атмосферное давление - измеренное на уровне метеостанции атмосферное давление.
Tmin - Минимальная температура - минимум температуры воздуха на высоте 2 м над землей.
Tmax - Максимальная температура - максимум температуры воздуха на высоте 2 м над землей.
R - Количество осадков - Количество выпавших осадков за период времени, мм. При наведении курсора мыши на число - период времени, за который выпало указанное количество осадков.
R24 - Количество осадков - Количество выпавших осадков за 24 часа, мм.
S - Снежный покров - Высота снежного покрова, см. При наведении курсора мыши на число - состояние снежного покрова и степень покрытия местности в баллах.